GLOBALSTAR M069 1 31573U 07020C 26106.61679509 -.00000106 00000+0 -12648-3 0 9998 2 31573 52.0036 66.3908 0002113 24.8070 146.2794 12.23470014871268 GLOBALSTAR M072 1 31574U 07020D 26106.72464814 -.00000092 00000+0 -10917-3 0 9993 2 31574 51.9927 263.8768 0001581 162.4418 210.9150 11.91657210867659 GLOBALSTAR M066 1 32265U 07048C 26106.76591650 -.00000109 00000+0 -11915-3 0 9992 2 32265 51.9587 234.2359 0004113 268.6403 257.5910 12.30388217852662 GLOBALSTAR M079 1 37188U 10054A 26106.83739473 -.00000096 00000+0 40913-4 0 9992 2 37188 52.0044 295.4292 0000683 119.6455 254.5415 12.62264994714806 GLOBALSTAR M074 1 37189U 10054B 26106.89342154 -.00000094 00000+0 56096-4 0 9992 2 37189 52.0022 294.5338 0000704 91.7188 56.8530 12.62267502715418 GLOBALSTAR M076 1 37190U 10054C 26106.81079909 -.00000074 00000+0 16389-3 0 9999 2 37190 52.0034 294.9824 0000487 95.9262 277.7004 12.62271958715122 GLOBALSTAR M077 1 37191U 10054D 26106.89834814 -.00000052 00000+0 47107-3 0 9990 2 37191 51.9984 334.8576 0003275 66.7884 306.2243 11.67547445713983 GLOBALSTAR M075 1 37192U 10054E 26106.90316705 -.00000079 00000+0 13604-3 0 9991 2 37192 51.9968 336.7902 0000797 89.2173 283.8454 12.62265910714207 GLOBALSTAR M073 1 37193U 10054F 26106.66602243 -.00000114 00000+0 -56107-4 0 9997 2 37193 52.0053 251.5634 0000566 131.6452 242.2777 12.62266366716167 GLOBALSTAR M083 1 37739U 11033A 26106.52021817 -.00000088 00000+0 89441-4 0 9994 2 37739 51.9852 200.3200 0000478 154.8700 217.8912 12.62262529685165 GLOBALSTAR M088 1 37740U 11033B 26106.97232616 -.00000098 00000+0 32642-4 0 9998 2 37740 52.0195 105.2219 0000267 66.4554 319.7565 12.62263091680765 GLOBALSTAR M091 1 37741U 11033C 26106.62116281 -.00000121 00000+0 -93611-4 0 9991 2 37741 52.0000 69.3445 0000394 87.5305 83.5807 12.62262648681506 GLOBALSTAR M085 1 37742U 11033D 26106.52869088 -.00000097 00000+0 40418-4 0 9999 2 37742 52.0183 20.8637 0000707 107.0545 63.8677 12.62260529682004 GLOBALSTAR M081 1 37743U 11033E 26106.47621770 -.00000108 00000+0 -23296-4 0 9997 2 37743 51.9981 23.5317 0000503 74.1965 97.3824 12.62263377682143 GLOBALSTAR M089 1 37744U 11033F 26106.95588999 -.00000084 00000+0 11163-3 0 9997 2 37744 51.9953 336.2455 0000745 64.5329 308.1464 12.62265708683059 GLOBALSTAR M084 1 38040U 11080A 26106.68359365 -.00000091 00000+0 72243-4 0 9997 2 38040 52.0003 204.5215 0000289 99.6746 54.9487 12.62266355660991 GLOBALSTAR M080 1 38041U 11080B 26106.54479968 -.00000096 00000+0 42351-4 0 9997 2 38041 52.0053 206.6412 0000976 126.4096 246.9010 12.62268259661103 GLOBALSTAR M082 1 38042U 11080C 26106.91147260 -.00000072 00000+0 17865-3 0 9991 2 38042 52.0064 161.0199 0000609 138.0100 32.3892 12.62269100661853 GLOBALSTAR M092 1 38043U 11080D 26106.80498322 -.00000095 00000+0 48870-4 0 9994 2 38043 52.0081 251.7368 0000683 108.9153 56.8270 12.62266448660294 GLOBALSTAR M090 1 38044U 11080E 26106.85897031 -.00000065 00000+0 21536-3 0 9996 2 38044 52.0107 155.1153 0000296 145.7141 25.1624 12.62268070661969 GLOBALSTAR M086 1 38045U 11080F 26106.88176885 -.00000078 00000+0 14372-3 0 9991 2 38045 51.9879 155.0762 0000758 265.5614 265.8057 12.62285228661910 GLOBALSTAR M097 1 39072U 13005A 26106.63619367 -.00000122 00000+0 -10395-3 0 9993 2 39072 52.0044 70.6960 0000285 89.2974 270.7925 12.62260116609138 GLOBALSTAR M093 1 39073U 13005B 26106.60997414 -.00000112 00000+0 -45635-4 0 9998 2 39073 52.0109 64.1015 0000226 113.5532 246.5358 12.62264518609081 GLOBALSTAR M094 1 39074U 13005C 26106.92680165 -.00000081 00000+0 12742-3 0 9992 2 39074 51.9980 337.3206 0000668 104.7040 255.3901 12.62267496610734 GLOBALSTAR M096 1 39075U 13005D 26106.78171453 -.00000103 00000+0 22375-5 0 9992 2 39075 52.0096 26.5116 0000551 90.2633 269.8297 12.62264025609630 GLOBALSTAR M078 1 39076U 13005E 26106.75465522 -.00000098 00000+0 33099-4 0 9990 2 39076 51.9853 110.6862 0001096 121.1118 238.9856 12.62276886608253 GLOBALSTAR M095 1 39077U 13005F 26106.70228534 -.00000100 00000+0 19778-4 0 9998 2 39077 52.0062 108.3640 0000507 138.3229 221.7677 12.62267385608104 GLOBALSTAR M087 1 52888U 22064A 26106.63656538 -.00000108 00000+0 -23656-4 0 9998 2 52888 51.9994 249.8414 0000794 132.6920 227.4014 12.62268143183361